Regional Weather Roundup
Issued by NWS Charleston, SC

Current Version | Previous Version | Graphics & Text | Print | Product List | Glossary On
Versions: 1 2 3 4 5 6 7 8 9 10 11 12 13 14 15 16 17 18 19 20 21 22 23 24 25 26 27 28 29 30 31 32 33 34 35 36 37 38 39 40 41 42 43 44 45 46 47 48 49 50
145
ASUS42 KCHS 220412
RWRCHS
NATIONAL WEATHER SERVICE CHARLESTON SC
1200 AM EDT FRI MAY 22 2015

NOTE: "FAIR" INDICATES FEW OR NO CLOUDS BELOW 12,000 FEET WITH NO
SIGNIFICANT WEATHER AND/OR OBSTRUCTIONS TO VISIBILITY.

NOT ALL STATIONS ARE QUALITY CONTROLLED BY THE NATIONAL
WEATHER SERVICE. USE DATA WITH CAUTION...ESPECIALLY
DEWPOINT OBSERVATIONS.

SCZ027-030-031-034>040-042>050-220500-
...SOUTHEAST SOUTH CAROLINA...

CITY           SKY/WX    TMP DP  RH WIND       PRES   REMARKS
N CHARLESTON   CLEAR     77  60  55 NW7       29.91R
WATERFRONT PAR   N/A     81  62  52 W6        29.88R
MOUNT PLEASANT FAIR      77  63  61 NW5       29.91R
JOHNS ISLAND   CLEAR     75  64  69 CALM      29.92R
PINOPOLIS        N/A     81  64  57 NW8       29.83R
MONCKS CORNER  FAIR      72  61  68 CALM      29.92R
SUMMERVILLE    FAIR      70  64  83 W3        29.92S
BEAUFORT MCAS  CLEAR     78  62  57 W9        29.93R
BEAUFORT ARPT  FAIR      81  64  57 W8        29.92R
HILTON HEAD IS CLEAR     79  64  61 W8        29.94R
WALTERBORO     CLEAR     70  61  73 W3        29.94R
ALLENDALE      FAIR      77  61  57 VRB7      29.94R

...SOUTHERN MIDLANDS AND PEE DEE...

CITY           SKY/WX    TMP DP  RH WIND       PRES   REMARKS
GEORGETOWN     NOT AVBL
KINGSTREE      NOT AVBL
ORANGEBURG     CLEAR     74  58  57 NW8       29.94R
BARNWELL       FAIR      75  61  60 W6        29.96R
AIKEN          FAIR      70  52  52 W9G17     30.01R
MANNING        FAIR     N/A N/A N/A NW6       29.92R
COLUMBIA       CLEAR     74  56  53 W15       29.95R
SUMTER         CLEAR     75  58  55 W7        29.90R
FLORENCE       CLEAR     69  64  84 E9        29.94R
MYRTLE BEACH   PTCLDY    73  64  73 NE8       29.95R
N MYRTLE BEACH CLEAR     68  64  87 NE6       29.94R

$$

GAZ063-065-086>088-099>101-113>116-118-119-134>141-150-220500-
...SOUTHEAST GEORGIA...

CITY           SKY/WX    TMP DP  RH WIND       PRES   REMARKS
SAVANNAH ARPT  CLEAR     77  61  57 W8        29.95R
HUNTER AAF     CLEAR     78  64  61 W9        29.93R
FORT STEWART   CLEAR     78  63  58 W7        29.95R
STATESBORO     CLEAR     76  66  71 NW8       29.97R
SYLVANIA       CLEAR     78  64  62 NW10      29.97R
CLAXTON        FAIR      77  64  65 W7        29.98R

...CSRA...CENTRAL AND FAR SOUTHEAST GEORGIA...

CITY           SKY/WX    TMP DP  RH WIND       PRES   REMARKS
THOMSON        CLEAR     69  58  69 W10       30.06R
AUGUSTA-BUSH   CLEAR     72  57  59 NW13      29.97R
AUGUSTA-DANIEL CLEAR     72  54  53 NW13G18   29.99R
SWAINSBORO     FAIR      75  63  64 NW7       30.00S
VIDALIA        CLEAR     75  63  64 W5        30.00R
EASTMAN        FAIR      73  64  73 NW6       30.05R
HAZLEHURST     FAIR      76  63  63 W5        30.00S
ALMA           CLEAR     76  62  62 NW7       30.00R
WAYCROSS       CLEAR     77  64  65 NW9       30.00R
JESUP          FAIR      81  68  65 NW6       29.98R
BAXLEY         FAIR      77  63  61 NW7       29.99S
BRUNSWICK      CLEAR     77  63  61 W5        29.98R
SAINT SIMONS   NOT AVBL

$$

SCZ027-028-034-036>038-045-046-048>050-GAZ119-141-220500-
...LAKE AND SUPPLEMENTAL COASTAL OBSERVATIONS...

STATION/POSITION TIME  TEMP    WIND        PRES    WAVE   SWELL
                       AIR SEA DIR/SP/G            HT/PER HT/PER/DIR
                 (UTC) (F)     (DEG/KT/KT) (MB)    (FT/S) (FT/S/D)
UPR LAKE MARION  NOT AVBL
WINYAH BAY       NOT AVBL
LAKE MURRAY      0300   76     280/ 12/ 16 1012.9R
ACE BASIN NERRS  NOT AVBL
FORT PULASKI     0300   82 78  250/  6/  8 1013.8R
SAPELO ISLAND    0300   80     250/  5     1014.0R

$$

ANZ835-935-AMZ111-154-330-350-352-354-370-450-454-472-220500-
...C-MAN AND BUOY OBSERVATIONS...

STATION/POSITION TIME  TEMP    WIND        PRES    WAVE   SWELL
                       AIR SEA DIR/SP/G            HT/PER HT/PER/DIR
                 (UTC) (F)     (DEG/KT/KT) (MB)    (FT/S) (FT/S/D)
BUOY 41004       0350   77 76  240/ 14/ 16 1011.6R   3/ 5   2/ 9
BUOY 41008       0350   81 78  270/ 12/ 12 1013.9R   1/ 4
FOLLY BEACH CMAN 0300   79     270/  3/  6 1012.6R
CAPERS NEARSHORE 0308   78     250/  8/ 12 1012.3R
FRIPP NEARSHORE  0300   79     270/  6/  8 1012.6


STATION/POSITION TIME  TEMP    WIND        PRES    WAVE   SWELL
                       AIR SEA DIR/SP/G            HT/PER HT/PER/DIR
                 (UTC) (F)     (DEG/KT/KT) (MB)    (FT/S) (FT/S/D)
5E ST. MARYS GA  0321      79                N/A     1/11
FRYING PAN BUOY  0350   74 75   30/ 12/ 14 1012.9R   4/ 6   2/130/ 8
BUOY 41025       0350   67 76  330/ 25/ 31 1010.7R   5/ 5   2/ 70/ 9
CAPE LOOKOUT NC  0300   65     350/ 12/ 16 1011.6R
BUOY 41002       0350   76 75  230/ 16/ 17 1013.6F   5/ 6   2/110/ 9
BUOY 41010       0320   80 79  200/ 10/ 12 1015.9R
ST AUGUSTINE FL  0400   79 74  260/  7/  9 1016.0R


$$



USA.gov is the U.S. government's official web portal to all federal, state and local government web resources and services.